Powrót do katalogu

STARLINK-11676

AktywnyŁącznośćVLEO
NORAD 63757·PAYLOAD·🇺🇸 United States

Wystrzelony Apr 29, 2025 z Cape Canaveral Space Force Station

Loading…

Następne Przeloty (najbliższe 24 godziny)

TLE

ŚwieżeSource: CelesTrak SupGP

Epoka: Sep 15, 2026, 03:10 UTC

1 63757C 25089G   26258.13243056 -.00098577  00000+0 -76555-3 0  2585
2 63757  43.0006 229.9107 0001575 264.9347 136.5543 15.70890207    13

Śledź STARLINK-11676 w czasie rzeczywistym z AllMySat

Download on the App Store